User: anonymous   Login
Location: Arborea
(39.7744°N, 8.5819°E)
Time: 10:35:03
(UTC+00:00)
Language:

CZ-2C DEB - Orbit

View from above orbital plane
View from above orbital plane
View from above satellite
View from above satellite

Ground track
Ground track

The orbit data is extracted from the following two-line orbital elements,

1 39224U 13035E   22227.50372428  .00000991  00000-0  36657-3 0  9997
2 39224  97.9320 107.3414 0175006  50.1279 311.5147 14.26115331467067
Epoch (UTC): 15 August 2022 12:05:21
Eccentricity: 0.0175006
inclination: 97.9320°
perigee height: 679 km
apogee height: 930 km
right ascension of ascending node: 107.3414°
argument of perigee: 50.1279°
revolutions per day: 14.26115331
mean anomaly at epoch: 311.5147°
orbit number at epoch: 46706

The dashed part of the orbit path shows where the satellite is in the earth's shadow,  

DLR